Airfield :
LOGIN :

Register | Disclaimer

   EN    FR    IT 

 










Legend :    VFR   Marginal VFR   IFR   Intensive IFR   Very Intensive IFR
Visi :
Ceiling :
>= 8 km
>= 3000ft
5 to 8 km
1000 to 3000 ft
1500m to 5 km
500 to 1000 ft
800 to 1500m
200 to 500 ft
< 800m
< 200 ft
Symbols :   Thunderstorms  Fog  Heavy snow  Heavy precipitations  Wind > 20 kt
SIGMETs :     Misc.  Thunderstorms  Icing  Turbulence  Mountain Waves  Volcanic Ashes







- Airport Elevation : 34 ft
- IATA code : BLK
- Download approach charts


EGNH - Blackpool

CURRENT METAR :
  • 270620Z 09006KT 9999 FEW018 06/05 Q1009

EXPIRED METARs :
  • 270550Z 07005KT 9999 FEW017 06/05 Q1009
  • 270520Z 09004KT 9999 FEW015 05/05 Q1009

TAF TAF EGNH
Valid from the 27 at 06:00 until the 27 at 15:00 UTC


270558Z 2706/2715 10007KT 9999 SCT015
PROB30
TEMPO 2706/2709 8000 SHRA BKN014
BECMG 2709/2712 8000 -RA
TEMPO 2709/2715 RA BKN014
ATIS : +44 1253 343 434 (x8315)
No reported NOTAMs for that airfield.



MET'MAP, your aeronautical weather chart ! - Copyright ORBIFLY December 2007 - Disclaimer

ORBIFLY MET'MAP TEAM :

Programming & Development : Alexandra Zaïnal
Concept & Development : Baudouin d'Aumeries
Co-Development & Prog : Marc-Olivier Méhu
Technical & hardware support : Manuel Goepfert

Contact : metmap@orbifly.com




SOURCES & CREDITS :

   NOAA